MYI284 WIII-WAHH

Flight info

Callsign MYI284
Flight time N/A
Altitude 31000
Route PW W17 LILPO
Aircraft B738/M-SDE2E3FGHIRWXY/LB1

Departure

Time 2026-05-06 17:35
Airport Soekarno-Hatta International Airport (WIII)

Arrival

Time N/A
Airport Adisutjipto International Airport (WAHH)
Time Latitude Longitude Altitude Speed Heading
2026-05-06 17:19 -6.12801 106.66192 37 ft 0 kts 69°
2026-05-06 17:28 -6.12806 106.66179 36 ft 2 kts 69°
2026-05-06 17:28 -6.12812 106.66164 36 ft 2 kts 70°
2026-05-06 17:28 -6.12818 106.66148 36 ft 2 kts 71°
2026-05-06 17:28 -6.12823 106.66132 36 ft 2 kts 74°
2026-05-06 17:29 -6.12826 106.66116 37 ft 2 kts 86°
2026-05-06 17:29 -6.12823 106.66101 37 ft 2 kts 148°
2026-05-06 17:29 -6.12817 106.66098 35 ft 0 kts 157°
2026-05-06 17:30 -6.12820 106.66099 34 ft 3 kts 157°
2026-05-06 17:31 -6.12875 106.66122 37 ft 14 kts 158°
2026-05-06 17:31 -6.12971 106.66160 35 ft 16 kts 158°
2026-05-06 17:31 -6.13078 106.66203 37 ft 18 kts 158°
2026-05-06 17:31 -6.13185 106.66265 37 ft 18 kts 112°
2026-05-06 17:32 -6.13157 106.66385 38 ft 18 kts 68°
2026-05-06 17:32 -6.13103 106.66518 37 ft 24 kts 68°
2026-05-06 17:32 -6.13035 106.66688 36 ft 29 kts 68°
2026-05-06 17:32 -6.12962 106.66872 37 ft 27 kts 68°
2026-05-06 17:33 -6.12893 106.67044 35 ft 26 kts 68°
2026-05-06 17:33 -6.12829 106.67205 37 ft 24 kts 68°
2026-05-06 17:33 -6.12786 106.67347 37 ft 16 kts 104°
2026-05-06 17:33 -6.12877 106.67406 38 ft 16 kts 160°
2026-05-06 17:34 -6.12981 106.67418 39 ft 16 kts 199°
2026-05-06 17:34 -6.13079 106.67308 39 ft 39 kts 248°
2026-05-06 17:34 -6.13297 106.66760 40 ft 127 kts 248°
2026-05-06 17:34 -6.13714 106.65710 164 ft 187 kts 248°
2026-05-06 17:35 -6.14271 106.64595 1338 ft 174 kts 245°
2026-05-06 17:35 -6.14727 106.63422 2134 ft 192 kts 239°
2026-05-06 17:35 -6.15784 106.62498 2483 ft 218 kts 195°
2026-05-06 17:36 -6.18554 106.63581 3309 ft 242 kts 127°
2026-05-06 17:36 -6.19618 106.64985 3871 ft 258 kts 124°
2026-05-06 17:36 -6.26806 106.76349 9840 ft 282 kts 119°
2026-05-06 17:36 -6.35224 106.90654 15290 ft 315 kts 120°
2026-05-06 17:37 -6.44949 107.06570 19828 ft 350 kts 121°
2026-05-06 17:37 -6.52736 107.19216 22800 ft 371 kts 121°
2026-05-06 17:37 -6.56212 107.24929 23855 ft 381 kts 121°
2026-05-06 17:37 -6.67487 107.43466 27175 ft 395 kts 121°
2026-05-06 17:38 -6.79251 107.62799 30044 ft 414 kts 121°
2026-05-06 17:38 -6.91631 107.83151 31269 ft 444 kts 121°
2026-05-06 17:38 -6.97651 107.93068 31223 ft 459 kts 121°
2026-05-06 17:38 -6.99300 107.95786 31092 ft 451 kts 121°
2026-05-06 17:39 -7.11018 108.15129 30774 ft 418 kts 121°
2026-05-06 17:39 -7.23147 108.35135 31016 ft 424 kts 121°
2026-05-06 17:39 -7.35692 108.55865 30835 ft 436 kts 122°
2026-05-06 17:39 -7.37495 108.58852 30031 ft 440 kts 122°
2026-05-06 17:40 -7.39079 108.61474 29451 ft 438 kts 122°
2026-05-06 17:40 -7.40656 108.64084 28963 ft 434 kts 122°
2026-05-06 17:40 -7.42218 108.66669 28474 ft 430 kts 122°
2026-05-06 17:40 -7.43768 108.69234 28005 ft 426 kts 122°
2026-05-06 17:41 -7.45326 108.71749 27630 ft 415 kts 126°
2026-05-06 17:41 -7.47531 108.73488 27340 ft 400 kts 147°
2026-05-06 17:41 -7.49115 108.75501 27577 ft 365 kts 108°
2026-05-06 17:41 -7.50071 108.77917 26138 ft 382 kts 117°
2026-05-06 17:42 -7.51336 108.80303 25849 ft 393 kts 120°
2026-05-06 17:42 -7.52576 108.82761 25503 ft 391 kts 116°
2026-05-06 17:42 -7.53762 108.85223 25051 ft 390 kts 117°
2026-05-06 17:42 -7.55014 108.87643 24631 ft 389 kts 118°
2026-05-06 17:43 -7.56342 108.90021 24199 ft 388 kts 120°
2026-05-06 17:43 -7.57698 108.92329 23778 ft 388 kts 121°
2026-05-06 17:43 -7.59114 108.94682 23301 ft 388 kts 121°
2026-05-06 17:43 -7.60500 108.96973 22836 ft 386 kts 121°
2026-05-06 17:44 -7.63211 109.01466 22008 ft 381 kts 120°
2026-05-06 17:44 -7.64296 109.03851 21565 ft 379 kts 109°
2026-05-06 17:44 -7.64938 109.06431 20965 ft 382 kts 98°
2026-05-06 17:44 -7.65276 109.09067 20503 ft 376 kts 97°
2026-05-06 17:45 -7.65582 109.11656 20083 ft 366 kts 97°
2026-05-06 17:45 -7.65879 109.14182 19691 ft 362 kts 97°
2026-05-06 17:45 -7.66178 109.16694 19289 ft 360 kts 97°
2026-05-06 17:45 -7.66482 109.19197 18883 ft 359 kts 98°
2026-05-06 17:46 -7.66790 109.21694 18484 ft 359 kts 98°
2026-05-06 17:46 -7.67100 109.24188 18049 ft 358 kts 98°
2026-05-06 17:46 -7.67412 109.26678 17614 ft 357 kts 98°
2026-05-06 17:46 -7.67722 109.29150 17202 ft 354 kts 98°
2026-05-06 17:47 -7.68031 109.31607 16796 ft 352 kts 98°
2026-05-06 17:47 -7.68337 109.34048 16399 ft 350 kts 98°
2026-05-06 17:47 -7.68642 109.36472 16009 ft 348 kts 98°
2026-05-06 17:47 -7.68945 109.38883 15622 ft 346 kts 98°
2026-05-06 17:48 -7.69247 109.41285 15232 ft 344 kts 98°
2026-05-06 17:48 -7.69546 109.43667 14851 ft 342 kts 98°
2026-05-06 17:48 -7.69843 109.46037 14469 ft 340 kts 98°
2026-05-06 17:48 -7.70137 109.48423 13900 ft 345 kts 98°
2026-05-06 17:49 -7.70458 109.50812 13541 ft 342 kts 99°
2026-05-06 17:49 -7.70739 109.53167 13269 ft 333 kts 96°
2026-05-06 17:49 -7.71024 109.55442 13178 ft 324 kts 98°
2026-05-06 17:49 -7.71856 109.57477 13239 ft 312 kts 130°
2026-05-06 17:50 -7.73402 109.58967 13249 ft 297 kts 138°
2026-05-06 17:50 -7.75001 109.60427 12972 ft 332 kts 139°
2026-05-06 17:50 -7.76814 109.61963 13144 ft 340 kts 141°
2026-05-06 17:50 -7.78594 109.63340 13255 ft 303 kts 143°
2026-05-06 17:51 -7.79555 109.65208 10235 ft 319 kts 93°
2026-05-06 17:51 -7.79014 109.67776 5525 ft 420 kts 83°
2026-05-06 17:51 -7.79026 109.70632 4205 ft 397 kts 98°
2026-05-06 17:51 -7.79779 109.73193 4515 ft 357 kts 108°
2026-05-06 17:52 -7.80495 109.75376 4666 ft 329 kts 102°
2026-05-06 17:52 -7.80727 109.77668 4220 ft 325 kts 94°
2026-05-06 17:52 -7.81135 109.79862 3442 ft 322 kts 108°
2026-05-06 17:52 -7.81556 109.82148 2613 ft 336 kts 86°
2026-05-06 17:53 -7.81655 109.84235 2997 ft 295 kts 149°
2026-05-06 17:53 -7.83424 109.85260 2583 ft 283 kts 114°
2026-05-06 17:53 -7.83969 109.87130 2043 ft 289 kts 107°
2026-05-06 17:53 -7.84573 109.89059 1932 ft 283 kts 107°
2026-05-06 17:54 -7.85163 109.90895 1918 ft 273 kts 106°
2026-05-06 17:54 -7.85713 109.92739 1784 ft 273 kts 107°
2026-05-06 17:54 -7.86284 109.94527 1682 ft 262 kts 107°
2026-05-06 17:54 -7.86139 109.96088 2479 ft 202 kts 53°
2026-05-06 17:55 -7.85416 109.97192 2475 ft 191 kts 85°
2026-05-06 17:55 -7.86001 109.98298 1565 ft 200 kts 168°
2026-05-06 17:55 -7.87322 109.97882 1138 ft 199 kts 204°
2026-05-06 17:55 -7.88249 109.98070 1219 ft 140 kts 102°
2026-05-06 17:56 -7.88403 109.99114 846 ft 152 kts 98°
2026-05-06 17:56 -7.88576 110.00161 669 ft 150 kts 99°
2026-05-06 17:56 -7.88871 110.01160 624 ft 147 kts 110°
2026-05-06 17:56 -7.89249 110.02160 546 ft 157 kts 110°
2026-05-06 17:57 -7.89616 110.03191 374 ft 156 kts 108°
2026-05-06 17:57 -7.89979 110.04208 115 ft 152 kts 110°
2026-05-06 17:57 -7.90327 110.05159 38 ft 125 kts 110°
2026-05-06 17:57 -7.90553 110.05779 44 ft 63 kts 110°
2026-05-06 17:58 -7.90635 110.06005 40 ft 8 kts 110°
2026-05-06 17:58 -7.90657 110.06066 41 ft 10 kts 110°
2026-05-06 17:58 -7.90680 110.06127 38 ft 9 kts 110°
2026-05-06 17:58 -7.90692 110.06190 40 ft 9 kts 98°
2026-05-06 17:59 -7.90656 110.06222 41 ft 9 kts 333°
2026-05-06 17:59 -7.90586 110.05946 44 ft 87 kts 283°
2026-05-06 17:59 -7.90496 110.05654 41 ft 0 kts 281°
2026-05-06 18:00 -7.90498 110.05626 44 ft 16 kts 251°
2026-05-06 18:00 -7.90529 110.05603 43 ft 11 kts 193°